When you browse on this site, cookies collect data to enhance your experience and personalize the content and advertising you see.
Visit our Privacy Policy to learn more. By continuing to use the site, you agree to this use of cookies and data.
  • In Latvia
  • List of Countries
  • For 7 days
  • Water Temperature
  • Weather Map
  • Weather Widgets
  • user-avatar
    Login

    Hourly Weather Providence

    Today, 16 October, Wednesday

    Time Temperature Precipitation Wind Pressure Humidity
    00:00 +9°C° 0 mm 1 mps 763 mmHg 69%
    01:00 +9°C° 0 mm 1 mps 763 mmHg 70%
    02:00 +9°C° 0 mm 1 mps 763 mmHg 72%
    03:00 +9°C° 0 mm 1 mps 762 mmHg 74%
    04:00 +8°C° 0 mm 0 mps 762 mmHg 77%
    05:00 +9°C° 0 mm 1 mps 762 mmHg 77%
    06:00 +10°C° 0 mm 1 mps 762 mmHg 76%
    07:00 +11°C° 0 mm 1 mps 762 mmHg 76%
    08:00 +13°C° 0 mm 2 mps 761 mmHg 70%
    09:00 +14°C° 0 mm 3 mps 761 mmHg 63%
    10:00 +16°C° 0 mm 5 mps 760 mmHg 56%
    11:00 +16°C° 0 mm 5 mps 760 mmHg 58%
    12:00 +17°C° 0 mm 4 mps 759 mmHg 60%
    13:00 +17°C° 0 mm 4 mps 758 mmHg 61%
    14:00 +17°C° 0 mm 4 mps 757 mmHg 66%
    15:00 +15°C° 0 mm 4 mps 756 mmHg 70%
    16:00 +15°C° 0 mm 4 mps 755 mmHg 74%
    17:00 +14°C° 0.5 mm 4 mps 754 mmHg 79%
    18:00 +14°C° 0.5 mm 5 mps 753 mmHg 83%
    19:00 +13°C° 0.5 mm 5 mps 751 mmHg 88%
    20:00 +12°C° 3.7 mm 7 mps 749 mmHg 89%
    21:00 +13°C° 3.7 mm 8 mps 746 mmHg 91%
    22:00 +13°C° 3.7 mm 10 mps 744 mmHg 93%
    23:00 +13°C° 8.9 mm 9 mps 741 mmHg 94%

    Tomorrow, 17 October, Thursday

    Time Temperature Precipitation Wind Pressure Humidity
    00:00 +13°C° 8.9 mm 8 mps 739 mmHg 95%
    01:00 +14°C° 8.9 mm 7 mps 737 mmHg 96%
    02:00 +12°C° 1.1 mm 7 mps 736 mmHg 92%
    03:00 +12°C° 1.1 mm 7 mps 735 mmHg 88%
    04:00 +11°C° 1.1 mm 8 mps 735 mmHg 84%
    05:00 +10°C° 0 mm 8 mps 735 mmHg 82%
    06:00 +10°C° 0 mm 8 mps 735 mmHg 79%
    07:00 +9°C° 0 mm 8 mps 736 mmHg 77%
    08:00 +9°C° 0.2 mm 8 mps 736 mmHg 78%
    09:00 +9°C° 0.2 mm 8 mps 737 mmHg 79%
    10:00 +7°C° 0.2 mm 9 mps 737 mmHg 81%
    11:00 +9°C° 0.4 mm 8 mps 738 mmHg 80%
    12:00 +9°C° 0.4 mm 8 mps 738 mmHg 80%
    13:00 +9°C° 0.4 mm 8 mps 738 mmHg 80%
    14:00 +10°C° 0 mm 8 mps 739 mmHg 77%
    15:00 +10°C° 0 mm 8 mps 739 mmHg 74%
    16:00 +10°C° 0 mm 8 mps 740 mmHg 71%
    17:00 +10°C° 0 mm 7 mps 741 mmHg 71%
    18:00 +9°C° 0 mm 7 mps 742 mmHg 71%
    19:00 +9°C° 0 mm 7 mps 743 mmHg 72%
    20:00 +9°C° 0 mm 6 mps 744 mmHg 72%
    21:00 +9°C° 0 mm 6 mps 744 mmHg 73%
    22:00 +8°C° 0 mm 5 mps 745 mmHg 74%
    23:00 +8°C° 0 mm 5 mps 746 mmHg 74%

    Day after tomorrow, 18 October, Friday

    Time Temperature Precipitation Wind Pressure Humidity
    00:00 +8°C° 0 mm 5 mps 746 mmHg 75%
    01:00 +8°C° 0 mm 4 mps 747 mmHg 76%
    02:00 +8°C° 0 mm 4 mps 748 mmHg 76%
    03:00 +8°C° 0 mm 4 mps 748 mmHg 76%
    04:00 +8°C° 0 mm 4 mps 749 mmHg 76%
    05:00 +8°C° 0 mm 5 mps 750 mmHg 74%
    06:00 +8°C° 0 mm 5 mps 750 mmHg 73%
    07:00 +8°C° 0 mm 5 mps 751 mmHg 71%
    08:00 +9°C° 0 mm 5 mps 752 mmHg 68%
    09:00 +10°C° 0 mm 5 mps 752 mmHg 64%
    10:00 +12°C° 0 mm 5 mps 753 mmHg 61%
    11:00 +13°C° 0 mm 5 mps 753 mmHg 59%
    12:00 +13°C° 0 mm 5 mps 753 mmHg 57%
    13:00 +13°C° 0 mm 5 mps 754 mmHg 55%
    14:00 +13°C° 0 mm 4 mps 754 mmHg 58%
    15:00 +13°C° 0 mm 3 mps 754 mmHg 60%
    16:00 +14°C° 0 mm 2 mps 755 mmHg 62%
    17:00 +12°C° 0 mm 3 mps 756 mmHg 65%
    18:00 +11°C° 0 mm 3 mps 757 mmHg 67%
    19:00 +10°C° 0 mm 4 mps 757 mmHg 69%
    20:00 +9°C° 0 mm 3 mps 758 mmHg 70%
    21:00 +8°C° 0 mm 3 mps 758 mmHg 71%
    22:00 +8°C° 0 mm 3 mps 758 mmHg 72%
    23:00 +7°C° 0 mm 3 mps 758 mmHg 74%

    19 October, Saturday

    Time Temperature Precipitation Wind Pressure Humidity
    00:00 +7°C° 0 mm 3 mps 759 mmHg 76%
    01:00 +5°C° 0 mm 3 mps 759 mmHg 77%
    02:00 +5°C° 0 mm 3 mps 759 mmHg 79%
    03:00 +5°C° 0 mm 3 mps 760 mmHg 80%
    04:00 +6°C° 0 mm 2 mps 760 mmHg 81%
    05:00 +6°C° 0 mm 2 mps 760 mmHg 80%
    06:00 +6°C° 0 mm 2 mps 760 mmHg 79%
    07:00 +6°C° 0 mm 2 mps 761 mmHg 78%
    08:00 +8°C° 0 mm 2 mps 761 mmHg 69%
    09:00 +12°C° 0 mm 2 mps 761 mmHg 60%
    10:00 +14°C° 0 mm 2 mps 761 mmHg 51%
    11:00 +15°C° 0 mm 2 mps 761 mmHg 47%
    12:00 +16°C° 0 mm 1 mps 760 mmHg 44%
    13:00 +18°C° 0 mm 1 mps 760 mmHg 40%
    14:00 +18°C° 0 mm 1 mps 760 mmHg 45%
    15:00 +16°C° 0 mm 1 mps 760 mmHg 50%
    16:00 +15°C° 0 mm 1 mps 760 mmHg 55%
    17:00 +14°C° 0 mm 2 mps 761 mmHg 62%
    18:00 +12°C° 0 mm 2 mps 761 mmHg 69%
    19:00 +9°C° 0 mm 2 mps 761 mmHg 76%
    20:00 +9°C° 0 mm 2 mps 761 mmHg 77%
    21:00 +9°C° 0 mm 2 mps 762 mmHg 79%
    22:00 +8°C° 0 mm 2 mps 762 mmHg 80%
    23:00 +9°C° 0 mm 1 mps 762 mmHg 81%

    20 October, Sunday

    Time Temperature Precipitation Wind Pressure Humidity
    00:00 +9°C° 0 mm 1 mps 762 mmHg 81%
    01:00 +9°C° 0 mm 1 mps 762 mmHg 82%
    02:00 +8°C° 0 mm 1 mps 762 mmHg 82%
    03:00 +8°C° 0 mm 1 mps 762 mmHg 82%
    04:00 +8°C° 0 mm 1 mps 762 mmHg 82%
    05:00 +8°C° 0 mm 1 mps 762 mmHg 81%
    06:00 +9°C° 0 mm 1 mps 763 mmHg 79%
    07:00 +9°C° 0 mm 1 mps 763 mmHg 78%
    08:00 +12°C° 0 mm 2 mps 763 mmHg 72%
    09:00 +14°C° 0 mm 2 mps 763 mmHg 65%
    10:00 +17°C° 0 mm 2 mps 763 mmHg 58%
    11:00 +18°C° 0 mm 2 mps 763 mmHg 57%
    12:00 +19°C° 0 mm 3 mps 763 mmHg 55%
    13:00 +20°C° 0 mm 3 mps 763 mmHg 53%
    14:00 +19°C° 0 mm 2 mps 763 mmHg 57%
    15:00 +19°C° 0 mm 2 mps 763 mmHg 62%
    16:00 +18°C° 0 mm 2 mps 763 mmHg 66%
    17:00 +16°C° 0 mm 1 mps 764 mmHg 72%
    18:00 +15°C° 0 mm 1 mps 764 mmHg 78%
    19:00 +13°C° 0 mm 1 mps 764 mmHg 84%
    20:00 +13°C° 0 mm 1 mps 765 mmHg 85%
    21:00 +12°C° 0 mm 1 mps 765 mmHg 86%
    22:00 +12°C° 0 mm 1 mps 766 mmHg 87%
    23:00 +12°C° 0 mm 1 mps 766 mmHg 88%

    21 October, Monday

    Time Temperature Precipitation Wind Pressure Humidity
    00:00 +11°C° 0 mm 1 mps 766 mmHg 88%
    01:00 +10°C° 0 mm 0 mps 766 mmHg 89%
    02:00 +10°C° 0 mm 0 mps 766 mmHg 89%
    03:00 +10°C° 0 mm 0 mps 767 mmHg 90%
    04:00 +10°C° 0 mm 1 mps 767 mmHg 90%
    05:00 +11°C° 0 mm 1 mps 767 mmHg 89%
    06:00 +11°C° 0 mm 1 mps 768 mmHg 88%
    07:00 +11°C° 0 mm 1 mps 768 mmHg 87%
    08:00 +14°C° 0 mm 1 mps 768 mmHg 78%
    09:00 +16°C° 0 mm 1 mps 768 mmHg 69%
    10:00 +20°C° 0 mm 1 mps 768 mmHg 60%
    11:00 +19°C° 0 mm 2 mps 768 mmHg 58%
    12:00 +20°C° 0 mm 2 mps 768 mmHg 56%
    13:00 +21°C° 0 mm 2 mps 768 mmHg 54%
    14:00 +20°C° 0 mm 2 mps 767 mmHg 60%
    15:00 +19°C° 0 mm 2 mps 767 mmHg 66%
    16:00 +17°C° 0 mm 2 mps 767 mmHg 73%
    17:00 +16°C° 0 mm 2 mps 767 mmHg 79%
    18:00 +15°C° 0 mm 2 mps 767 mmHg 86%
    19:00 +14°C° 0 mm 2 mps 767 mmHg 92%
    20:00 +14°C° 0 mm 2 mps 766 mmHg 92%
    21:00 +13°C° 0 mm 3 mps 766 mmHg 92%
    22:00 +13°C° 0 mm 3 mps 766 mmHg 92%
    23:00 +14°C° 0 mm 3 mps 765 mmHg 92%
    Show more